431  
FPUS82 KCHS 262112  
OPUCHS  
 
TEST   
..KCHS/KSAV GATEWAY OBSERVATIONS
 
TEST  
NATIONAL WEATHER SERVICE CHARLESTON SC  
500 PM EDT WED APR 26 2017  
 
NOTE: "FAIR" INDICATES FEW OR NO CLOUDS BELOW 12,000 FEET WITH NO  
SIGNIFICANT WEATHER AND/OR OBSTRUCTIONS TO VISIBILITY.  
 
SCZ050-WAZ558-NCZ071-TXZ119-213-PAZ071-DCZ001-FLZ074-172-MI076-  
NYZ176-178-MAZ016-IL014-TNZ027-NJZ106-GAZ044-MD014-262200-  
   
..GATEWAY OBSERVATIONS FOR CHARLESTON INTERNATIONAL
 
 
 
CITY SKY/WX TMP DP RH WIND PRES REMARKS  
CHAS AIRPORT MOSUNNY 82 56 40 S15 29.82S  
SEATTLE MOSUNNY 57 42 57 SW18G24 29.84R  
CHARLOTTE MOSUNNY 80 57 45 SW12 29.80S  
DALLAS DFW CLOUDY 63 48 58 NW21G29 29.66S  
DALLAS LOVE CLOUDY 60 48 64 NW17 29.68R  
PHILLADELPHIA CLOUDY 64 56 75 N5 29.78R  
WASH NATIONAL PTSUNNY 70 59 68 NE6 29.77F  
BALTIMORE CLOUDY 65 58 78 CALM 29.77F  
MIAMI MOSUNNY 84 68 58 SE14 29.86F  
DETROIT PTSUNNY 79 57 46 S14G21 29.56F  
NEWARK CLOUDY 60 57 89 E6 29.75F  
LAGUARDIA CLOUDY 59 56 89 NE7 29.76S FOG  
J F K CLOUDY 60 57 89 NE9 29.77S  
BOSTON LOGAN LGT RAIN 52 52 100 NE7 29.82S VSB 1/4  
FT. LAUDERDALE MOSUNNY 81 67 62 E13 29.86F  
CHICAGO O'HARE CLOUDY 72 55 55 SW9G21 29.47F  
CHICAGO MIDWAY PTSUNNY 76 55 48 SW14 29.47F  
HOUSTON BUSH PTSUNNY 88 70 55 VRB7 29.52F HX 93  
HOUSTON HOBBY MOSUNNY 86 72 62 SW13 29.52F HX 92  
NASHVILLE MOSUNNY 83 55 38 S18G24 29.65F  
ATLANTA MOSUNNY 80 57 45 S12 29.77F  
 

 
 
GAZ044-118-TXZ119-213-NCZ071-DCZ001-MDZ014-506-PAZ021-071-NJZ106-  
NYZ176-178-MAZ106-OHZ011-021-055-MIZ076-KYZ091-ILZ014-INZ047-  
MNZ060-ONZ431-262200-  
   
..GATEWAY OBSERVATIONS FOR SAVANNAH INTERNATIONAL
 
 
 
CITY SKY/WX TMP DP RH WIND PRES REMARKS  
SAVANNAH ARPT MOSUNNY 84 55 36 S12 29.81S  
ATLANTA MOSUNNY 80 57 45 S12 29.77F  
CHARLOTTE MOSUNNY 80 57 45 SW12 29.80S  
DALLAS DFW CLOUDY 63 48 58 NW21G29 29.66S  
HOUSTON BUSH PTSUNNY 88 70 55 VRB7 29.52F HX 93  
WASH NATIONAL PTSUNNY 70 59 68 NE6 29.77F  
WASH DULLES PTSUNNY 72 58 61 NW3 29.77S  
BALTIMORE CLOUDY 65 58 78 CALM 29.77F  
PHILADELPHIA CLOUDY 64 56 75 N5 29.78R  
NEWARK CLOUDY 60 57 89 E6 29.75F  
LAGUARDIA CLOUDY 59 56 89 NE7 29.76S FOG  
J F K CLOUDY 60 57 89 NE9 29.77S  
BOSTON LGT RAIN 52 52 100 NE7 29.82S VSB 1/4  
PITTSBURG MOSUNNY 77 57 50 S8 29.70F  
AKRON MOSUNNY 79 56 45 S14 29.65F  
CLEVELAND PTSUNNY 81 53 37 S21G28 29.61F  
CINCINNATI MOSUNNY 81 59 47 S16G29 29.60F  
COLUMBUS SUNNY 83 52 34 S21 29.61S  
DETROIT PTSUNNY 79 57 46 S14G21 29.56F  
CHICAGO O'HARE CLOUDY 72 55 55 SW9G21 29.47F  
MINNEAPOLIS CLOUDY 40 32 73 NW14 29.55S WCI 32  
INDIANAPOLIS PTSUNNY 82 59 45 SW16 29.53F  
TORONTO CANADA MOSUNNY 61 54 77 SE8 29.70F  
 

 
 
 
CLICK HERE TO GO TO PREVIOUS BULLETINS.

The Nexlab SC Page
The Nexlab GA Page Main Text Page